Погода в Экибастузе

Казахстан     51°43′46″N   75°19′35″E
темп.,
°C
ветер,
м/с
пор.,
м/с
влажн.,
%
обл.,
%
осадки,
мм/ч
давл.,
гПа
погр.,
м
9 марта, вт
вт900:00−14юз612870 0.0 1027214
03:00−15юз6118211 0.0 1027188
06:00−15юз7117721 0.0 1027192
09:00−13юз7127655 0.0 1027240
12:00−9юз7107570 0.0 1026277
15:00−7юз68763 0.0 1024342
18:00−9юз45826 0.0 102391
21:00−12юз457953 0.0 102359
10 марта, ср
ср1000:00−13юз457765 0.0 102251
03:00−12юз447484 0.0 101939
06:00−13ююз337558 0.0 101721
09:00−8юв579093 0.0 1013144
12:00−3юв9139196 0.0 1008327
15:00+2ю817100100 0.7 1003763
18:00+2ююз81697100 0.9 1001555
21:00−5з11188293 0.1 1006547
11 марта, чт
чт1100:00−8зюз9188453 0.1 1011447
03:00−9зюз8158458 0.0 1012430
06:00−9юз9188251 0.0 1014460
09:00−10зюз1017810 0.0 1016480
12:00−7юз914760 0.0 1017545
15:00−4ююз8137272 0.0 1014777
18:00−2ююз10198186 0.0 10111118
21:00−7зюз91678100 0.0 1014928
12 марта, пт
пт1200:00−12зюз8178167 0.0 1018619
03:00−15зюз817810 0.0 1019561
06:00−17зюз817830 0.0 1020541
09:00−17зюз915820 0.0 1022544
12:00−15зюз1013812 0.0 1024722
15:00−14з9137718 0.0 1025889
18:00−16з5118419 0.0 1026447
21:00−19зюз47890 0.0 1028107
13 марта, сб
сб1300:00−20зюз58890 0.0 1030129
03:00−21зюз47890 0.0 1030102
06:00−21зюз448817 0.0 103172
09:00−19зюз348651 0.0 1032114
12:00−15зюз347838 0.0 1032300
15:00−12юз34750 0.0 1031399
18:00−13ююз12830 0.0 103121
21:00−17юз12850 0.0 103120